Tracking 28790 objects as of 19-Apr-2024
HD Live streaming from Space Station
objects crossing your sky now

OPS 7218 (TRANSIT 16)

Track OPS 7218 (TRANSIT 16) now!
10-day predictions
OPS 7218 (TRANSIT 16) is classified as:


NORAD ID: 2807
Int'l Code: 1967-048A
Perigee: 1,061.0 km
Apogee: 1,094.1 km
Inclination: 89.7 °
Period: 106.6 minutes
Semi major axis: 7448 km
RCS: 1.5463 m2 (large)
Launch date: May 18, 1967
Source: United States (US)
Launch site: AIR FORCE WESTERN TEST RANGE (AFWTR)
Your satellite tracking list
Your tracking list is empty




NASA's NSSDC Master Catalog

Two Line Element Set (TLE):
1 02807U 67048A   24109.78124442  .00000264  00000-0  39543-3 0  9999
2 02807  89.6775  13.7687 0022189  61.8131 359.5499 13.50496324801375
Source of the keplerian elements: AFSPC